EJU59GM EHAM-LDSP

Flight info

Callsign EJU59GM
Flight time 1h 46m
Altitude 37000
Route EDUPO Z739 MISGO DCT ASBON DCT TUSUK DCT UTABA DCT BEMKI DCT ELMEM DCT DIRAB DCT VESAL DCT PEVAL DCT PUL DCT LOS DCT MINTU DCT SAL
Aircraft A320/M-SDE2E3FGHIJ1RWXYZ/LB1

Departure

Time 2026-04-27 11:47
Airport Amsterdam Airport Schiphol (EHAM)

Arrival

Time 2026-04-27 13:34
Airport Split Saint Jerome Airport (LDSP)
Time Latitude Longitude Altitude Speed Heading
2026-04-27 11:20 52.31050 4.75514 -1 ft 0 kts 148°
2026-04-27 11:27 52.31050 4.75513 -1 ft 0 kts 148°
2026-04-27 11:28 52.31051 4.75513 -1 ft 0 kts 146°
2026-04-27 11:32 52.31066 4.75497 -1 ft 4 kts 150°
2026-04-27 11:33 52.31083 4.75479 -1 ft 4 kts 91°
2026-04-27 11:33 52.31078 4.75447 -1 ft 2 kts 72°
2026-04-27 11:33 52.31078 4.75443 -1 ft 0 kts 72°
2026-04-27 11:35 52.31081 4.75455 -1 ft 5 kts 66°
2026-04-27 11:35 52.31149 4.75498 -1 ft 17 kts 358°
2026-04-27 11:35 52.31271 4.75485 -1 ft 18 kts 356°
2026-04-27 11:36 52.31403 4.75474 -1 ft 19 kts 357°
2026-04-27 11:36 52.31498 4.75433 -1 ft 13 kts 311°
2026-04-27 11:36 52.31506 4.75299 -1 ft 15 kts 266°
2026-04-27 11:36 52.31499 4.75085 -1 ft 20 kts 266°
2026-04-27 11:37 52.31492 4.74874 -1 ft 17 kts 267°
2026-04-27 11:37 52.31486 4.74688 -1 ft 15 kts 267°
2026-04-27 11:37 52.31481 4.74524 -1 ft 13 kts 267°
2026-04-27 11:37 52.31477 4.74381 -1 ft 12 kts 269°
2026-04-27 11:38 52.31528 4.74300 -1 ft 13 kts 353°
2026-04-27 11:38 52.31630 4.74306 -1 ft 17 kts
2026-04-27 11:38 52.31752 4.74318 -1 ft 18 kts
2026-04-27 11:38 52.31884 4.74331 -1 ft 19 kts
2026-04-27 11:39 52.31996 4.74324 -1 ft 15 kts 336°
2026-04-27 11:39 52.32032 4.74180 -1 ft 14 kts 273°
2026-04-27 11:39 52.32037 4.74030 -2 ft 13 kts 273°
2026-04-27 11:39 52.32042 4.73895 -2 ft 11 kts 273°
2026-04-27 11:40 52.32046 4.73771 -1 ft 13 kts 274°
2026-04-27 11:40 52.32052 4.73613 -1 ft 13 kts 273°
2026-04-27 11:40 52.32060 4.73458 -1 ft 15 kts 281°
2026-04-27 11:40 52.32127 4.73303 -1 ft 19 kts 320°
2026-04-27 11:41 52.32234 4.73152 -1 ft 21 kts 319°
2026-04-27 11:41 52.32345 4.72996 -1 ft 22 kts 319°
2026-04-27 11:41 52.32464 4.72830 -1 ft 23 kts 319°
2026-04-27 11:41 52.32585 4.72659 -1 ft 23 kts 319°
2026-04-27 11:42 52.32705 4.72476 -1 ft 24 kts 310°
2026-04-27 11:42 52.32797 4.72302 -1 ft 17 kts 311°
2026-04-27 11:42 52.32873 4.72162 -1 ft 16 kts 311°
2026-04-27 11:42 52.32941 4.72035 -1 ft 14 kts 311°
2026-04-27 11:43 52.33005 4.71916 -1 ft 14 kts 311°
2026-04-27 11:43 52.33065 4.71806 -1 ft 12 kts 311°
2026-04-27 11:43 52.33122 4.71697 -1 ft 14 kts 306°
2026-04-27 11:43 52.33143 4.71561 -1 ft 12 kts 263°
2026-04-27 11:44 52.33133 4.71439 -1 ft 10 kts 283°
2026-04-27 11:44 52.33170 4.71354 -1 ft 8 kts 311°
2026-04-27 11:44 52.33206 4.71287 -1 ft 7 kts 311°
2026-04-27 11:44 52.33235 4.71232 -1 ft 6 kts 311°
2026-04-27 11:45 52.33261 4.71183 -1 ft 7 kts 311°
2026-04-27 11:45 52.33294 4.71123 -1 ft 14 kts 311°
2026-04-27 11:45 52.33383 4.70962 -2 ft 10 kts 319°
2026-04-27 11:45 52.33423 4.70944 -2 ft 0 kts
2026-04-27 11:46 52.33425 4.70944 -2 ft 2 kts
2026-04-27 11:46 52.33585 4.70958 0 ft 58 kts
2026-04-27 11:47 52.34212 4.71015 -3 ft 120 kts
2026-04-27 11:47 52.35220 4.71106 8 ft 167 kts
2026-04-27 11:47 52.36370 4.71197 661 ft 164 kts
2026-04-27 11:47 52.37506 4.71307 1389 ft 165 kts
2026-04-27 11:48 52.38720 4.71430 1773 ft 185 kts
2026-04-27 11:48 52.40091 4.71570 2088 ft 210 kts
2026-04-27 11:48 52.41627 4.71770 2498 ft 233 kts 12°
2026-04-27 11:48 52.43190 4.72782 3028 ft 250 kts 29°
2026-04-27 11:49 52.44725 4.74200 3836 ft 256 kts 29°
2026-04-27 11:49 52.46240 4.75754 4708 ft 259 kts 39°
2026-04-27 11:49 52.47438 4.77982 5550 ft 265 kts 57°
2026-04-27 11:49 52.48147 4.80783 6374 ft 271 kts 76°
2026-04-27 11:50 52.48363 4.83882 7184 ft 275 kts 84°
2026-04-27 11:50 52.48458 4.87044 7956 ft 281 kts 92°
2026-04-27 11:50 52.48052 4.90195 8708 ft 286 kts 111°
2026-04-27 11:50 52.47058 4.93036 9493 ft 290 kts 130°
2026-04-27 11:51 52.45558 4.95267 10266 ft 293 kts 146°
2026-04-27 11:51 52.43849 4.97229 10698 ft 310 kts 146°
2026-04-27 11:51 52.40101 5.01548 11477 ft 340 kts 146°
2026-04-27 11:52 52.38152 5.03805 12179 ft 344 kts 146°
2026-04-27 11:52 52.36217 5.06044 12888 ft 347 kts 146°
2026-04-27 11:52 52.34218 5.08380 13589 ft 351 kts 144°
2026-04-27 11:52 52.32438 5.11074 14221 ft 357 kts 134°
2026-04-27 11:53 52.30776 5.14110 14788 ft 361 kts 134°
2026-04-27 11:53 52.29095 5.17183 15377 ft 365 kts 134°
2026-04-27 11:53 52.27390 5.20287 15950 ft 369 kts 134°
2026-04-27 11:53 52.25661 5.23427 16498 ft 374 kts 134°
2026-04-27 11:54 52.23971 5.26687 17053 ft 379 kts 128°
2026-04-27 11:54 52.22435 5.30222 17595 ft 384 kts 127°
2026-04-27 11:54 52.20886 5.33797 18150 ft 388 kts 127°
2026-04-27 11:54 52.19323 5.37401 18669 ft 392 kts 127°
2026-04-27 11:55 52.17741 5.41052 19148 ft 396 kts 127°
2026-04-27 11:55 52.16142 5.44736 19629 ft 400 kts 127°
2026-04-27 11:55 52.14521 5.48451 20038 ft 405 kts 127°
2026-04-27 11:55 52.12878 5.52206 20494 ft 409 kts 127°
2026-04-27 11:56 52.11217 5.55992 20951 ft 412 kts 128°
2026-04-27 11:56 52.09545 5.59805 21414 ft 416 kts 128°
2026-04-27 11:56 52.07858 5.63646 21849 ft 419 kts 128°
2026-04-27 11:56 52.06146 5.67497 22300 ft 421 kts 131°
2026-04-27 11:57 52.04250 5.71126 22747 ft 423 kts 134°
2026-04-27 11:57 52.02314 5.74749 23207 ft 426 kts 134°
2026-04-27 11:57 52.00358 5.78390 23634 ft 429 kts 134°
2026-04-27 11:57 51.98389 5.82041 24031 ft 431 kts 134°
2026-04-27 11:58 51.96406 5.85718 24382 ft 434 kts 134°
2026-04-27 11:58 51.94412 5.89425 24720 ft 437 kts 134°
2026-04-27 11:58 51.92413 5.93153 25067 ft 440 kts 134°
2026-04-27 11:58 51.90403 5.96911 25417 ft 442 kts 134°
2026-04-27 11:59 51.88385 6.00680 25741 ft 444 kts 134°
2026-04-27 11:59 51.86351 6.04466 26089 ft 447 kts 134°
2026-04-27 11:59 51.84304 6.08257 26418 ft 449 kts 135°
2026-04-27 11:59 51.82239 6.12053 26758 ft 451 kts 135°
2026-04-27 12:00 51.80153 6.15865 27088 ft 453 kts 135°
2026-04-27 12:00 51.78059 6.19682 27409 ft 456 kts 135°
2026-04-27 12:00 51.75950 6.23526 27727 ft 458 kts 135°
2026-04-27 12:00 51.73835 6.27384 28048 ft 460 kts 135°
2026-04-27 12:01 51.71710 6.31260 28365 ft 462 kts 135°
2026-04-27 12:01 51.69574 6.35153 28673 ft 465 kts 135°
2026-04-27 12:01 51.67424 6.39061 28972 ft 467 kts 135°
2026-04-27 12:01 51.65265 6.42979 29282 ft 469 kts 135°
2026-04-27 12:02 51.63093 6.46921 29563 ft 471 kts 135°
2026-04-27 12:02 51.60915 6.50881 29841 ft 473 kts 135°
2026-04-27 12:02 51.59470 6.53507 30029 ft 475 kts 135°
2026-04-27 12:02 51.57272 6.57485 30308 ft 477 kts 135°
2026-04-27 12:03 51.54335 6.62773 30621 ft 479 kts 136°
2026-04-27 12:03 51.52832 6.65471 30772 ft 480 kts 136°
2026-04-27 12:03 51.50601 6.69475 31008 ft 481 kts 136°
2026-04-27 12:03 51.48395 6.73428 31340 ft 480 kts 136°
2026-04-27 12:04 51.46168 6.77411 31687 ft 479 kts 136°
2026-04-27 12:04 51.43942 6.81381 32047 ft 477 kts 136°
2026-04-27 12:04 51.41699 6.85289 32359 ft 474 kts 140°
2026-04-27 12:04 51.39224 6.88721 32680 ft 468 kts 148°
2026-04-27 12:05 51.36525 6.91587 32973 ft 464 kts 153°
2026-04-27 12:05 51.33796 6.94332 33304 ft 463 kts 153°
2026-04-27 12:05 51.31071 6.97072 33643 ft 462 kts 153°
2026-04-27 12:05 51.28351 6.99806 33973 ft 461 kts 153°
2026-04-27 12:06 51.25635 7.02532 34294 ft 460 kts 153°
2026-04-27 12:06 51.22923 7.05244 34568 ft 460 kts 153°
2026-04-27 12:06 51.20211 7.07947 34820 ft 459 kts 153°
2026-04-27 12:06 51.17504 7.10649 35051 ft 459 kts 153°
2026-04-27 12:07 51.14785 7.13361 35283 ft 459 kts 153°
2026-04-27 12:07 51.12073 7.16062 35454 ft 460 kts 153°
2026-04-27 12:07 51.09350 7.18769 35644 ft 460 kts 153°
2026-04-27 12:07 51.06634 7.21469 35859 ft 460 kts 152°
2026-04-27 12:08 51.03919 7.24169 36065 ft 460 kts 152°
2026-04-27 12:08 51.01206 7.26865 36266 ft 460 kts 152°
2026-04-27 12:08 50.98494 7.29555 36473 ft 460 kts 152°
2026-04-27 12:08 50.95814 7.32205 36667 ft 460 kts 152°
2026-04-27 12:09 50.93099 7.34879 36869 ft 459 kts 152°
2026-04-27 12:09 50.90383 7.37552 37061 ft 459 kts 152°
2026-04-27 12:09 50.87666 7.40222 37219 ft 459 kts 152°
2026-04-27 12:10 50.82250 7.45547 37248 ft 458 kts 152°
2026-04-27 12:10 50.76835 7.50844 37251 ft 458 kts 153°
2026-04-27 12:11 50.71404 7.56145 37244 ft 459 kts 152°
2026-04-27 12:11 50.66042 7.61625 37246 ft 460 kts 150°
2026-04-27 12:12 50.60721 7.67236 37220 ft 460 kts 150°
2026-04-27 12:12 50.55387 7.72811 37230 ft 460 kts 151°
2026-04-27 12:13 50.50027 7.78320 37243 ft 460 kts 151°
2026-04-27 12:13 50.44667 7.83786 37244 ft 459 kts 151°
2026-04-27 12:14 50.39304 7.89255 37243 ft 459 kts 151°
2026-04-27 12:14 50.33991 7.94700 37221 ft 459 kts 151°
2026-04-27 12:15 50.28630 8.00178 37217 ft 460 kts 151°
2026-04-27 12:15 50.23261 8.05618 37208 ft 460 kts 151°
2026-04-27 12:16 50.17877 8.11055 37195 ft 460 kts 151°
2026-04-27 12:16 50.12434 8.16241 37156 ft 455 kts 159°
2026-04-27 12:17 50.06690 8.20396 37155 ft 454 kts 160°
2026-04-27 12:17 50.00955 8.24531 37164 ft 455 kts 160°
2026-04-27 12:18 49.95209 8.28662 37164 ft 455 kts 160°
2026-04-27 12:18 49.89460 8.32791 37201 ft 456 kts 160°
2026-04-27 12:19 49.83705 8.36913 37208 ft 456 kts 160°
2026-04-27 12:19 49.77981 8.41008 37215 ft 456 kts 160°
2026-04-27 12:20 49.72224 8.45112 37216 ft 456 kts 160°
2026-04-27 12:20 49.66462 8.49204 37218 ft 456 kts 160°
2026-04-27 12:21 49.60701 8.53282 37207 ft 455 kts 160°
2026-04-27 12:21 49.54939 8.57351 37215 ft 455 kts 160°
2026-04-27 12:22 49.49169 8.61418 37222 ft 455 kts 160°
2026-04-27 12:22 49.43406 8.65480 37222 ft 455 kts 160°
2026-04-27 12:23 49.37641 8.69528 37210 ft 455 kts 160°
2026-04-27 12:23 49.31913 8.73538 37211 ft 455 kts 160°
2026-04-27 12:24 49.26153 8.77557 37212 ft 455 kts 160°
2026-04-27 12:24 49.20390 8.81563 37210 ft 455 kts 160°
2026-04-27 12:25 49.14630 8.85558 37200 ft 456 kts 160°
2026-04-27 12:25 49.08791 8.89591 37205 ft 464 kts 160°
2026-04-27 12:26 49.02845 8.93698 37201 ft 472 kts 160°
2026-04-27 12:26 48.96846 8.97845 37197 ft 475 kts 160°
2026-04-27 12:27 48.90853 9.01968 37196 ft 475 kts 160°
2026-04-27 12:27 48.84832 9.06098 37177 ft 475 kts 160°
2026-04-27 12:28 48.78803 9.10213 37172 ft 475 kts 160°
2026-04-27 12:28 48.72771 9.14318 37172 ft 475 kts 160°
2026-04-27 12:29 48.66742 9.18410 37163 ft 475 kts 159°
2026-04-27 12:29 48.60703 9.22504 37164 ft 476 kts 159°
2026-04-27 12:30 48.54652 9.26597 37174 ft 477 kts 159°
2026-04-27 12:30 48.48595 9.30684 37194 ft 477 kts 159°
2026-04-27 12:31 48.42524 9.34763 37192 ft 477 kts 159°
2026-04-27 12:31 48.36455 9.38825 37199 ft 477 kts 160°
2026-04-27 12:32 48.30383 9.42894 37201 ft 477 kts 159°
2026-04-27 12:32 48.24489 9.47540 37191 ft 482 kts 147°
2026-04-27 12:33 48.19263 9.53878 37188 ft 484 kts 142°
2026-04-27 12:33 48.14065 9.60278 37190 ft 484 kts 143°
2026-04-27 12:34 48.08847 9.66657 37192 ft 484 kts 143°
2026-04-27 12:34 48.03631 9.73027 37192 ft 484 kts 143°
2026-04-27 12:35 47.98410 9.79390 37186 ft 484 kts 143°
2026-04-27 12:35 47.93220 9.85705 37189 ft 485 kts 142°
2026-04-27 12:36 47.87984 9.92061 37197 ft 485 kts 142°
2026-04-27 12:36 47.82740 9.98404 37195 ft 485 kts 142°
2026-04-27 12:37 47.77490 10.04733 37172 ft 485 kts 142°
2026-04-27 12:37 47.72248 10.11047 37181 ft 485 kts 142°
2026-04-27 12:38 47.67035 10.17310 37189 ft 485 kts 142°
2026-04-27 12:38 47.61782 10.23583 37189 ft 485 kts 142°
2026-04-27 12:39 47.56511 10.29850 37185 ft 485 kts 144°
2026-04-27 12:39 47.50924 10.35425 37173 ft 484 kts 148°
2026-04-27 12:40 47.45289 10.40904 37180 ft 484 kts 148°
2026-04-27 12:40 47.39668 10.46354 37189 ft 484 kts 148°
2026-04-27 12:41 47.34038 10.51799 37168 ft 484 kts 148°
2026-04-27 12:41 47.28435 10.57192 37162 ft 484 kts 147°
2026-04-27 12:42 47.22892 10.62822 37166 ft 484 kts 145°
2026-04-27 12:42 47.17453 10.68666 37157 ft 484 kts 144°
2026-04-27 12:43 47.12007 10.74480 37158 ft 484 kts 145°
2026-04-27 12:43 47.06521 10.80211 37146 ft 484 kts 145°
2026-04-27 12:44 47.01021 10.85903 37162 ft 483 kts 145°
2026-04-27 12:44 46.95532 10.91588 37161 ft 483 kts 145°
2026-04-27 12:45 46.90085 10.97239 37160 ft 482 kts 145°
2026-04-27 12:45 46.84611 11.02890 37130 ft 482 kts 145°
2026-04-27 12:46 46.79484 11.09159 37143 ft 481 kts 132°
2026-04-27 12:46 46.74922 11.16305 37127 ft 481 kts 132°
2026-04-27 12:47 46.70347 11.23421 37129 ft 481 kts 133°
2026-04-27 12:47 46.65754 11.30526 37083 ft 481 kts 133°
2026-04-27 12:48 46.61160 11.37615 37064 ft 482 kts 133°
2026-04-27 12:48 46.56559 11.44697 37078 ft 482 kts 133°
2026-04-27 12:49 46.52738 11.50585 37082 ft 481 kts 133°
2026-04-27 12:49 46.47396 11.58795 37089 ft 481 kts 133°
2026-04-27 12:50 46.42794 11.65836 37097 ft 480 kts 133°
2026-04-27 12:50 46.38971 11.71666 37118 ft 480 kts 133°
2026-04-27 12:51 46.34316 11.78586 37118 ft 480 kts 134°
2026-04-27 12:51 46.29592 11.85400 37125 ft 479 kts 134°
2026-04-27 12:52 46.24864 11.92200 37126 ft 479 kts 135°
2026-04-27 12:52 46.20160 11.99008 37129 ft 479 kts 134°
2026-04-27 12:53 46.13102 12.09226 37138 ft 479 kts 134°
2026-04-27 12:53 46.08381 12.16010 37141 ft 478 kts 135°
2026-04-27 12:54 46.03696 12.22733 37148 ft 478 kts 135°
2026-04-27 12:54 45.98986 12.29479 37150 ft 478 kts 135°
2026-04-27 12:55 45.94268 12.36216 37156 ft 478 kts 135°
2026-04-27 12:55 45.89543 12.42948 37151 ft 478 kts 135°
2026-04-27 12:56 45.84819 12.49665 37145 ft 478 kts 135°
2026-04-27 12:56 45.80124 12.56311 37145 ft 478 kts 135°
2026-04-27 12:57 45.75387 12.62996 37141 ft 478 kts 135°
2026-04-27 12:57 45.70655 12.69671 37143 ft 478 kts 135°
2026-04-27 12:58 45.65919 12.76337 37139 ft 478 kts 135°
2026-04-27 12:58 45.61176 12.82988 37138 ft 478 kts 135°
2026-04-27 12:59 45.56435 12.89631 37140 ft 478 kts 135°
2026-04-27 12:59 45.51687 12.96264 37147 ft 477 kts 135°
2026-04-27 13:00 45.46937 13.02874 37145 ft 477 kts 135°
2026-04-27 13:00 45.42179 13.09470 37142 ft 477 kts 135°
2026-04-27 13:01 45.37421 13.16059 37138 ft 477 kts 135°
2026-04-27 13:01 45.32695 13.22596 37136 ft 477 kts 135°
2026-04-27 13:02 45.28032 13.29382 37142 ft 477 kts 131°
2026-04-27 13:02 45.23725 13.36464 37139 ft 477 kts 129°
2026-04-27 13:03 45.19442 13.43656 37140 ft 477 kts 130°
2026-04-27 13:03 45.15077 13.50743 37136 ft 477 kts 131°
2026-04-27 13:04 45.10655 13.57769 37145 ft 477 kts 131°
2026-04-27 13:04 45.06243 13.64780 37141 ft 477 kts 131°
2026-04-27 13:05 45.01832 13.71803 37140 ft 477 kts 131°
2026-04-27 13:05 44.97426 13.78818 37144 ft 477 kts 131°
2026-04-27 13:06 44.93026 13.85822 37156 ft 477 kts 131°
2026-04-27 13:06 44.88610 13.92810 37150 ft 477 kts 131°
2026-04-27 13:07 44.84139 13.99708 37148 ft 477 kts 132°
2026-04-27 13:07 44.79650 14.06503 37138 ft 476 kts 132°
2026-04-27 13:08 44.75133 14.13341 37134 ft 477 kts 132°
2026-04-27 13:08 44.70634 14.20182 37142 ft 477 kts 132°
2026-04-27 13:09 44.66126 14.27035 37136 ft 477 kts 132°
2026-04-27 13:09 44.61608 14.33878 37140 ft 477 kts 132°
2026-04-27 13:10 44.57085 14.40698 37142 ft 477 kts 132°
2026-04-27 13:10 44.52519 14.47468 37150 ft 478 kts 136°
2026-04-27 13:11 44.47503 14.53490 37143 ft 478 kts 139°
2026-04-27 13:11 44.42436 14.59510 37112 ft 478 kts 139°
2026-04-27 13:12 44.39896 14.62539 36461 ft 481 kts 139°
2026-04-27 13:12 44.37345 14.65581 35692 ft 482 kts 139°
2026-04-27 13:12 44.34789 14.68623 34887 ft 484 kts 139°
2026-04-27 13:12 44.32218 14.71676 34160 ft 484 kts 139°
2026-04-27 13:13 44.29646 14.74725 33118 ft 488 kts 139°
2026-04-27 13:13 44.27070 14.77769 32611 ft 481 kts 139°
2026-04-27 13:13 44.24528 14.80766 32019 ft 477 kts 139°
2026-04-27 13:13 44.22007 14.83737 31443 ft 472 kts 138°
2026-04-27 13:14 44.19516 14.86674 30863 ft 467 kts 139°
2026-04-27 13:14 44.17045 14.89584 30310 ft 463 kts 139°
2026-04-27 13:14 44.14594 14.92461 29697 ft 459 kts 139°
2026-04-27 13:14 44.12170 14.95305 29167 ft 453 kts 139°
2026-04-27 13:15 44.09772 14.98121 28610 ft 448 kts 139°
2026-04-27 13:15 44.07403 15.00898 28075 ft 443 kts 139°
2026-04-27 13:15 44.05058 15.03647 27546 ft 439 kts 139°
2026-04-27 13:15 44.02739 15.06364 27041 ft 434 kts 139°
2026-04-27 13:16 44.00439 15.09050 26540 ft 430 kts 139°
2026-04-27 13:16 43.98159 15.11704 26051 ft 425 kts 140°
2026-04-27 13:16 43.95909 15.14324 25584 ft 421 kts 140°
2026-04-27 13:16 43.93675 15.16925 25120 ft 417 kts 140°
2026-04-27 13:17 43.91478 15.19532 24659 ft 413 kts 139°
2026-04-27 13:17 43.89359 15.22119 24208 ft 410 kts 138°
2026-04-27 13:17 43.87242 15.24740 23750 ft 406 kts 138°
2026-04-27 13:17 43.85145 15.27344 23232 ft 403 kts 138°
2026-04-27 13:18 43.83062 15.29920 22787 ft 399 kts 138°
2026-04-27 13:18 43.80992 15.32459 22326 ft 396 kts 138°
2026-04-27 13:18 43.78931 15.34969 21854 ft 393 kts 139°
2026-04-27 13:18 43.76884 15.37453 21395 ft 390 kts 139°
2026-04-27 13:19 43.74846 15.39921 20930 ft 388 kts 139°
2026-04-27 13:19 43.72816 15.42379 20466 ft 386 kts 139°
2026-04-27 13:19 43.70802 15.44818 19991 ft 384 kts 139°
2026-04-27 13:19 43.68794 15.47253 19532 ft 383 kts 139°
2026-04-27 13:20 43.66796 15.49676 19060 ft 382 kts 139°
2026-04-27 13:20 43.64804 15.52090 18590 ft 381 kts 139°
2026-04-27 13:20 43.62811 15.54498 18091 ft 380 kts 140°
2026-04-27 13:20 43.60828 15.56886 17626 ft 377 kts 140°
2026-04-27 13:21 43.58859 15.59253 17169 ft 374 kts 140°
2026-04-27 13:21 43.56903 15.61605 16719 ft 372 kts 140°
2026-04-27 13:21 43.54959 15.63942 16270 ft 369 kts 140°
2026-04-27 13:21 43.53031 15.66267 15827 ft 367 kts 139°
2026-04-27 13:22 43.51116 15.68576 15388 ft 365 kts 139°
2026-04-27 13:22 43.49207 15.70871 14938 ft 363 kts 139°
2026-04-27 13:22 43.47308 15.73152 14493 ft 361 kts 139°
2026-04-27 13:22 43.45408 15.75428 13946 ft 363 kts 139°
2026-04-27 13:23 43.43509 15.77697 13466 ft 360 kts 139°
2026-04-27 13:23 43.41629 15.79942 13030 ft 356 kts 139°
2026-04-27 13:23 43.39813 15.82112 12536 ft 343 kts 139°
2026-04-27 13:23 43.38023 15.84251 12035 ft 331 kts 140°
2026-04-27 13:24 43.36293 15.86315 11653 ft 328 kts 140°
2026-04-27 13:24 43.34582 15.88362 11289 ft 324 kts 137°
2026-04-27 13:24 43.33141 15.90716 10920 ft 322 kts 123°
2026-04-27 13:24 43.32197 15.93475 10591 ft 318 kts 108°
2026-04-27 13:25 43.31803 15.96399 10452 ft 304 kts 94°
2026-04-27 13:25 43.31903 15.99218 10108 ft 291 kts 83°
2026-04-27 13:25 43.32178 16.01914 9536 ft 286 kts 82°
2026-04-27 13:25 43.32471 16.04600 8914 ft 283 kts 82°
2026-04-27 13:26 43.32768 16.07270 8362 ft 282 kts 83°
2026-04-27 13:26 43.33063 16.09944 7941 ft 283 kts 83°
2026-04-27 13:26 43.33356 16.12619 7513 ft 282 kts 83°
2026-04-27 13:26 43.33638 16.15224 7156 ft 269 kts 83°
2026-04-27 13:27 43.33907 16.17719 6799 ft 258 kts 83°
2026-04-27 13:27 43.34283 16.20076 6423 ft 249 kts 71°
2026-04-27 13:27 43.35056 16.22165 6054 ft 243 kts 55°
2026-04-27 13:27 43.36209 16.23824 5680 ft 239 kts 43°
2026-04-27 13:28 43.37442 16.25320 5311 ft 235 kts 43°
2026-04-27 13:28 43.38659 16.26799 4944 ft 231 kts 43°
2026-04-27 13:28 43.39840 16.28230 4583 ft 227 kts 42°
2026-04-27 13:28 43.41019 16.29650 4226 ft 223 kts 42°
2026-04-27 13:29 43.42162 16.31014 3875 ft 213 kts 42°
2026-04-27 13:29 43.43272 16.32322 3575 ft 207 kts 41°
2026-04-27 13:29 43.44350 16.33557 3363 ft 194 kts 42°
2026-04-27 13:29 43.45349 16.34651 3191 ft 175 kts 39°
2026-04-27 13:30 43.46293 16.35648 2963 ft 169 kts 42°
2026-04-27 13:30 43.47138 16.36667 2772 ft 157 kts 47°
2026-04-27 13:30 43.47927 16.37698 2540 ft 154 kts 47°
2026-04-27 13:30 43.48739 16.38684 2347 ft 158 kts 37°
2026-04-27 13:31 43.49725 16.39292 2111 ft 157 kts 14°
2026-04-27 13:31 43.50808 16.39437 1853 ft 155 kts
2026-04-27 13:31 43.51882 16.39496 1632 ft 154 kts 359°
2026-04-27 13:31 43.52964 16.39538 1351 ft 155 kts 358°
2026-04-27 13:32 43.53982 16.39283 1150 ft 145 kts 328°
2026-04-27 13:32 43.54714 16.38404 967 ft 138 kts 301°
2026-04-27 13:32 43.55147 16.37238 872 ft 136 kts 286°
2026-04-27 13:32 43.55388 16.35992 891 ft 135 kts 276°
2026-04-27 13:33 43.55569 16.34724 739 ft 133 kts 275°
2026-04-27 13:33 43.55567 16.33457 500 ft 132 kts 257°
2026-04-27 13:33 43.55222 16.32284 320 ft 133 kts 240°
2026-04-27 13:33 43.54703 16.31252 132 ft 130 kts 232°
2026-04-27 13:34 43.54168 16.30294 55 ft 112 kts 232°
2026-04-27 13:34 43.53867 16.29746 71 ft 47 kts 233°
2026-04-27 13:34 43.53728 16.29495 75 ft 10 kts 231°
2026-04-27 13:34 43.53697 16.29511 74 ft 5 kts 93°
2026-04-27 13:35 43.53694 16.29561 74 ft 5 kts 103°
2026-04-27 13:35 43.53680 16.29605 67 ft 10 kts 107°
2026-04-27 13:35 43.53699 16.29685 61 ft 9 kts 53°
2026-04-27 13:35 43.53732 16.29746 61 ft 7 kts 53°
2026-04-27 13:36 43.53752 16.29800 63 ft 5 kts 91°
2026-04-27 13:36 43.53739 16.29844 66 ft 5 kts 114°
2026-04-27 13:36 43.53729 16.29874 65 ft 1 kts 115°
2026-04-27 13:36 43.53728 16.29877 66 ft 0 kts 115°